Montreal Mirabel, Quebec

9:27 AM EDT on July 27, 2017 (GMT -0400)
Montreal Mirabel

Weather History for CYMX - February, 2014

Change the Weather History Date:

Wednesday, February 26, 2014

  Actual Average Record
Temperature  
Mean Temperature 5 °F -  
Max Temperature 12 °F 25 °F 44 °F (1998)
Min Temperature -2 °F 9 °F -14 °F (2003)
Degree Days  
Heating Degree Days 60    
Moisture  
Dew Point -3 °F    
Average Humidity 69    
Maximum Humidity 85    
Minimum Humidity 48    
Precipitation  
Precipitation 0.00 in - - ()
Sea Level Pressure  
Sea Level Pressure 29.79 in    
Wind  
Wind Speed 5 mph ()    
Max Wind Speed 16 mph    
Max Gust Speed 30 mph    
Visibility 4.3 miles    
Events Snow    
Averages and records for this station are not official NWS values.
T = Trace of Precipitation, MM = Missing Value Source: Averaged Metar Reports

Daily Weather History Graph

Daily Weather History Graph

Search for Another Location

Airport or City:

Trip Planner

Search our weather history database for the weather conditions in past years. The results will help you decide how hot, cold, wet, or windy it might be!

Date:

Astronomy

Feb. 26, 2014 Rise Set
Actual Time 6:39 AM EST 5:38 PM EST
Civil Twilight 6:10 AM EST 6:08 PM EST
Nautical Twilight 5:35 AM EST 6:43 PM EST
Astronomical Twilight 5:01 AM EST 7:17 PM EST
Moon 4:30 AM EST (2/26) 2:44 PM EST (2/26)
Length of Visible Light 11h 58m
Length of Day
10h 58m
Waning Crescent, 10% of the Moon is Illuminated
Feb 26
Waning Crescent
Mar 1
New
Mar 8
First Quarter
Mar 16
Full
Mar 23
Last Quarter

Hourly Weather History & Observations

Time (EST) Temp. Windchill Dew Point Humidity Pressure Visibility Wind Dir Wind Speed Gust Speed Precip Events Conditions
12:00 AM 6.8 °F - -0.4 °F 72% 29.88 in 8.0 mi SW 2.3 mph - N/A Snow Light Snow Showers
1:00 AM 5.0 °F - -0.4 °F 78% 29.86 in 8.0 mi NNE 2.3 mph - N/A Snow Light Snow Showers
2:00 AM 5.0 °F - -0.4 °F 78% 29.85 in 6.0 mi ESE 2.3 mph - N/A Snow Light Snow
2:50 AM 5.0 °F - -0.4 °F 78% 29.82 in 2.0 mi Calm Calm - N/A Snow Light Snow
3:00 AM 5.0 °F - -0.4 °F 78% 29.83 in 3.0 mi NNE 2.3 mph - N/A Snow Light Snow
3:48 AM 1.4 °F -6.2 °F -2.2 °F 85% 29.79 in 8.0 mi NE 3.5 mph - N/A Snow Light Snow
4:00 AM 3.2 °F -7.8 °F -2.2 °F 78% 29.80 in 8.0 mi NE 5.8 mph - N/A Snow Light Snow
5:00 AM 3.2 °F -4.2 °F -0.4 °F 85% 29.76 in 6.0 mi NE 3.5 mph - N/A Snow Light Snow
5:14 AM 5.0 °F -6.9 °F -0.4 °F 78% 29.77 in 2.0 mi NE 6.9 mph - N/A Snow Light Snow
5:32 AM 3.2 °F -6.2 °F -0.4 °F 85% 29.77 in 2.5 mi NNE 4.6 mph - N/A Snow Light Snow
5:50 AM 3.2 °F -7.8 °F -0.4 °F 85% 29.75 in 1.5 mi NE 5.8 mph - N/A Snow Light Snow
6:00 AM 3.2 °F -6.2 °F -0.4 °F 85% 29.75 in 1.5 mi NE 4.6 mph - N/A Snow Light Snow
6:35 AM 5.0 °F - -0.4 °F 78% 29.74 in 0.8 mi NNE 2.3 mph - N/A Snow Light Snow
7:00 AM 5.0 °F -5.6 °F -0.4 °F 78% 29.72 in 1.0 mi NE 5.8 mph - N/A Snow Light Snow
7:44 AM 5.0 °F -2.1 °F -0.4 °F 78% 29.72 in 0.8 mi North 3.5 mph - N/A Snow Light Snow
8:00 AM 5.0 °F -2.1 °F 1.4 °F 85% 29.73 in 1.0 mi North 3.5 mph - N/A Snow Light Snow
8:18 AM 5.0 °F -2.1 °F 1.4 °F 85% 29.73 in 2.0 mi NNW 3.5 mph - N/A Snow Light Snow
8:54 AM 8.6 °F -2.6 °F 3.2 °F 79% 29.73 in 4.0 mi WSW 6.9 mph - N/A Snow Light Snow
9:00 AM 8.6 °F -2.6 °F 3.2 °F 79% 29.74 in 4.0 mi West 6.9 mph - N/A Snow Light Snow
10:00 AM 10.4 °F -6.6 °F -2.2 °F 57% 29.75 in 25.0 mi SW 16.1 mph 25.3 mph N/A Snow Low Drifting Snow
11:00 AM 10.4 °F -5.4 °F -2.2 °F 57% 29.76 in 5.0 mi WSW 13.8 mph 29.9 mph N/A Snow Light Snow Showers
12:00 PM 10.4 °F -4.8 °F -4.0 °F 52% 29.77 in 5.0 mi WSW 12.7 mph 25.3 mph N/A Snow Light Snow Showers
1:00 PM 10.4 °F -6.0 °F -2.2 °F 57% 29.77 in 10.0 mi West 15.0 mph 26.5 mph N/A Snow Light Snow Showers
2:00 PM 12.2 °F -2.5 °F -0.4 °F 57% 29.78 in 6.0 mi WSW 12.7 mph 23.0 mph N/A Snow Light Snow Showers
3:00 PM 12.2 °F -2.5 °F -4.0 °F 48% 29.78 in 8.0 mi WSW 12.7 mph 27.6 mph N/A Snow Light Snow Showers
4:00 PM 12.2 °F -0.2 °F -4.0 °F 48% 29.80 in 25.0 mi West 9.2 mph 19.6 mph N/A Snow Low Drifting Snow
5:00 PM 10.4 °F -2.4 °F -5.8 °F 48% 29.80 in 25.0 mi WSW 9.2 mph 19.6 mph N/A Snow Low Drifting Snow
6:00 PM 8.6 °F -3.7 °F -7.6 °F 48% 29.83 in 25.0 mi WSW 8.1 mph - N/A   Partly Cloudy
7:00 PM 6.8 °F -3.5 °F -9.4 °F 48% 29.84 in 25.0 mi SW 5.8 mph - N/A   Partly Cloudy
8:00 PM 6.8 °F -4.8 °F -9.4 °F 48% 29.84 in 25.0 mi SW 6.9 mph - N/A   Mostly Cloudy
9:00 PM 1.4 °F - -11.2 °F 56% 29.83 in 25.0 mi South 2.3 mph - N/A   Partly Cloudy
10:00 PM -2.2 °F - -13.0 °F 60% 29.83 in 25.0 mi Calm Calm - N/A   Partly Cloudy
11:00 PM -0.4 °F - -11.2 °F 60% 29.82 in 25.0 mi Calm Calm - N/A   Mostly Cloudy